Lid_Strength_Index
8 7 6 8 10 8 11 11 11 10 9 7 6 6 5 5 5 5 4 4 3 3 3 2 2 2 2 1 1 1 1 0
8 6 6 7 7 10 10 14 15 12 12 10 8 7 6 5 5 5 4 4 3 3 3 2 2 2 1 1 1 1 1 0
8 8 8 8 8 9 9 10 12 13 11 7 7 6 6 5 5 4 4 4 3 3 3 2 2 2 2 1 1 1 1 1
9 8 8 8 8 8 11 11 11 11 10 6 6 6 5 5 5 4 4 4 3 3 3 3 2 2 2 2 2 1 1 1
9 9 9 9 9 8 8 8 11 11 10 6 6 6 6 6 5 5 4 4 4 3 3 3 3 2 2 2 2 1 1 1
10 9 8 9 8 8 8 10 10 10 8 7 6 6 5 5 5 5 5 4 4 4 3 3 3 3 3 2 2 2 2 2
9 9 9 9 8 8 9 8 10 9 9 7 6 6 5 5 5 5 5 5 4 4 4 4 3 3 3 3 2 1 2 2
10 8 9 9 8 8 8 8 8 8 8 5 5 5 6 6 5 5 5 5 4 4 4 4 3 3 2 3 2 1 2 2
11 10 9 10 8 7 7 7 7 9 6 5 6 6 6 6 5 5 5 5 4 4 4 3 3 3 2 3 2 2 2 2
10 10 14 8 6 6 8 7 6 6 6 6 5 5 5 5 5 5 4 4 4 4 3 3 2 2 1 2 2 2 2 1
12 12 10 8 8 8 8 7 6 6 6 6 5 5 5 5 4 4 4 3 3 3 3 3 2 2 2 2 1 2 2 1
11 13 13 8 7 6 7 10 6 6 6 6 6 8 6 5 4 4 3 3 3 3 3 3 2 2 2 3 2 2 2 1
11 12 10 7 7 6 11 10 7 6 6 6 7 6 6 5 4 4 3 3 3 3 3 3 2 2 3 3 3 2 1 1
12 13 14 6 7 10 8 6 6 6 6 6 5 6 5 5 5 4 4 3 3 3 3 2 2 2 3 3 2 1 1 1
11 10 7 6 6 5 5 6 6 6 5 5 6 5 5 5 5 4 4 4 3 3 3 2 2 2 3 2 1 1 1 2
10 8 7 6 5 5 4 5 4 4 4 4 5 4 5 5 5 5 4 4 3 3 3 3 2 2 2 1 1 2 2 3
9 7 6 6 5 5 4 4 4 4 4 4 4 5 4 5 5 5 5 3 3 3 3 3 2 2 2 1 2 2 3 4
9 7 7 6 5 4 5 5 4 4 4 4 4 4 4 5 4 4 5 4 4 3 3 3 2 2 3 3 2 3 4 4
6 5 5 4 4 3 4 4 4 4 3 4 4 4 4 4 4 5 3 3 3 3 3 2 3 4 3 2 2 2 3 2